Location: Strawberry
(45.6646°N, 111.9596°W)
Time: 20:08:50
(UTC+00:00)

Vanguard 1 Rocket - Pass Details

Date: 12 October 2022
Orbit: 650 x 4225 km, 34.3° (Epoch: 01 December)

Event Time Altitude Azimuth Distance (km) Brightness Sun altitude
Rises 21:46:02 0° 198° (SSW) 7,784 13.2 26.8°
Reaches altitude 10° 21:52:24 10° 188° (S) 7,103 12.9 26.0°
Maximum altitude 22:11:43 29° 139° (SE) 5,888 11.7 23.6°
Drops below altitude 10° 22:29:20 10° 90° (E) 6,598 11.4 21.2°
Sets 22:34:45 0° 80° (E) 7,190 11.4 20.4°
